N124MC KGCN-KPGA

Flight info

Callsign N124MC
Flight time 0h 25m
Altitude 10500
Route VFR
Aircraft M20P/L-VGD/C

Departure

Time 2026-05-05 17:01
Airport Grand Canyon National Park Airport (KGCN)

Arrival

Time 2026-05-05 17:26
Airport Page Municipal Airport (KPGA)
Time Latitude Longitude Altitude Speed Heading
2026-05-05 16:53 35.95443 -112.14252 6567 ft 0 kts 40°
2026-05-05 16:57 35.95464 -112.14241 6567 ft 11 kts 17°
2026-05-05 16:57 35.95550 -112.14184 6568 ft 17 kts 36°
2026-05-05 16:57 35.95658 -112.14077 6568 ft 23 kts 41°
2026-05-05 16:58 35.95790 -112.13936 6567 ft 25 kts 41°
2026-05-05 16:58 35.95914 -112.13805 6567 ft 23 kts 40°
2026-05-05 16:58 35.96033 -112.13681 6567 ft 23 kts 38°
2026-05-05 16:58 35.96115 -112.13613 6567 ft 7 kts 241°
2026-05-05 16:59 35.96110 -112.13635 6567 ft 1 kts 312°
2026-05-05 16:59 35.96151 -112.13709 6567 ft 13 kts 272°
2026-05-05 16:59 35.96138 -112.13745 6567 ft 0 kts 220°
2026-05-05 16:59 35.96127 -112.13758 6567 ft 12 kts 223°
2026-05-05 17:00 35.95961 -112.13933 6567 ft 49 kts 221°
2026-05-05 17:00 35.95633 -112.14284 6602 ft 71 kts 220°
2026-05-05 17:00 35.95220 -112.14723 6712 ft 85 kts 221°
2026-05-05 17:00 35.94811 -112.15260 6961 ft 87 kts 224°
2026-05-05 17:01 35.94505 -112.15919 7176 ft 99 kts 264°
2026-05-05 17:01 35.95005 -112.16556 7417 ft 120 kts 340°
2026-05-05 17:01 35.95804 -112.16851 7677 ft 121 kts 334°
2026-05-05 17:01 35.96611 -112.17182 7938 ft 124 kts 339°
2026-05-05 17:02 35.97448 -112.17486 8182 ft 125 kts 338°
2026-05-05 17:02 35.98269 -112.17794 8449 ft 120 kts 338°
2026-05-05 17:02 35.99107 -112.18108 8695 ft 128 kts 338°
2026-05-05 17:02 35.99941 -112.18410 8958 ft 122 kts 338°
2026-05-05 17:03 36.00729 -112.18682 9193 ft 113 kts 339°
2026-05-05 17:03 36.01498 -112.18941 9459 ft 118 kts 338°
2026-05-05 17:03 36.02301 -112.19207 9720 ft 120 kts 338°
2026-05-05 17:03 36.03108 -112.19467 9970 ft 119 kts 338°
2026-05-05 17:04 36.03906 -112.19724 10194 ft 119 kts 338°
2026-05-05 17:04 36.04697 -112.19983 10425 ft 115 kts 338°
2026-05-05 17:04 36.05504 -112.20245 10612 ft 129 kts 338°
2026-05-05 17:04 36.06419 -112.20556 10742 ft 141 kts 338°
2026-05-05 17:05 36.07374 -112.20891 10887 ft 144 kts 338°
2026-05-05 17:05 36.08325 -112.21225 11007 ft 140 kts 339°
2026-05-05 17:05 36.09283 -112.21565 11118 ft 144 kts 338°
2026-05-05 17:05 36.10256 -112.21899 11249 ft 147 kts 342°
2026-05-05 17:06 36.11306 -112.21794 11376 ft 156 kts 10°
2026-05-05 17:06 36.12372 -112.21507 11487 ft 157 kts
2026-05-05 17:06 36.13473 -112.21217 11501 ft 168 kts
2026-05-05 17:06 36.14660 -112.20907 11479 ft 180 kts 11°
2026-05-05 17:07 36.15893 -112.20597 11488 ft 182 kts
2026-05-05 17:07 36.17157 -112.20282 11472 ft 188 kts
2026-05-05 17:07 36.18452 -112.19955 11468 ft 192 kts
2026-05-05 17:07 36.19773 -112.19625 11457 ft 195 kts
2026-05-05 17:08 36.20656 -112.19406 11455 ft 196 kts
2026-05-05 17:08 36.22004 -112.19070 11435 ft 198 kts
2026-05-05 17:08 36.23356 -112.18696 11415 ft 202 kts 20°
2026-05-05 17:08 36.24569 -112.17867 11415 ft 198 kts 37°
2026-05-05 17:09 36.25596 -112.16712 11389 ft 204 kts 46°
2026-05-05 17:09 36.26622 -112.15528 11406 ft 200 kts 43°
2026-05-05 17:09 36.27673 -112.14415 11394 ft 197 kts 41°
2026-05-05 17:09 36.28719 -112.13318 11393 ft 199 kts 41°
2026-05-05 17:10 36.29766 -112.12207 11397 ft 203 kts 41°
2026-05-05 17:10 36.30848 -112.11059 11363 ft 201 kts 42°
2026-05-05 17:10 36.31906 -112.09932 11376 ft 203 kts 41°
2026-05-05 17:10 36.32966 -112.08808 11355 ft 198 kts 41°
2026-05-05 17:11 36.34017 -112.07690 11337 ft 204 kts 41°
2026-05-05 17:11 36.35062 -112.06584 11423 ft 195 kts 42°
2026-05-05 17:11 36.36077 -112.05507 11493 ft 190 kts 41°
2026-05-05 17:11 36.37089 -112.04429 11484 ft 196 kts 42°
2026-05-05 17:12 36.38143 -112.03308 11473 ft 201 kts 41°
2026-05-05 17:12 36.39195 -112.02191 11480 ft 197 kts 41°
2026-05-05 17:12 36.40232 -112.01082 11489 ft 196 kts 41°
2026-05-05 17:12 36.41270 -111.99980 11399 ft 198 kts 41°
2026-05-05 17:13 36.42325 -111.98858 11273 ft 201 kts 41°
2026-05-05 17:13 36.43385 -111.97726 11149 ft 202 kts 41°
2026-05-05 17:13 36.44451 -111.96589 11019 ft 202 kts 41°
2026-05-05 17:13 36.45515 -111.95453 10903 ft 201 kts 41°
2026-05-05 17:14 36.46578 -111.94322 10782 ft 202 kts 41°
2026-05-05 17:14 36.47643 -111.93185 10662 ft 202 kts 41°
2026-05-05 17:14 36.48711 -111.92046 10543 ft 203 kts 41°
2026-05-05 17:14 36.49779 -111.90904 10421 ft 203 kts 41°
2026-05-05 17:15 36.50849 -111.89762 10300 ft 203 kts 41°
2026-05-05 17:15 36.51914 -111.88623 10180 ft 202 kts 42°
2026-05-05 17:15 36.52981 -111.87480 10056 ft 202 kts 41°
2026-05-05 17:15 36.54046 -111.86343 9944 ft 202 kts 41°
2026-05-05 17:16 36.55107 -111.85206 9820 ft 201 kts 41°
2026-05-05 17:16 36.56166 -111.84075 9697 ft 200 kts 41°
2026-05-05 17:16 36.57222 -111.82945 9568 ft 200 kts 41°
2026-05-05 17:16 36.58273 -111.81817 9495 ft 197 kts 41°
2026-05-05 17:17 36.59301 -111.80717 9484 ft 193 kts 41°
2026-05-05 17:17 36.60310 -111.79638 9499 ft 190 kts 41°
2026-05-05 17:17 36.61306 -111.78572 9490 ft 188 kts 41°
2026-05-05 17:17 36.62294 -111.77513 9486 ft 187 kts 41°
2026-05-05 17:18 36.63273 -111.76460 9485 ft 186 kts 42°
2026-05-05 17:18 36.64258 -111.75405 9487 ft 188 kts 41°
2026-05-05 17:18 36.65249 -111.74340 9479 ft 188 kts 41°
2026-05-05 17:18 36.66240 -111.73276 9504 ft 188 kts 42°
2026-05-05 17:19 36.67230 -111.72210 9498 ft 189 kts 41°
2026-05-05 17:19 36.68249 -111.71113 9271 ft 197 kts 42°
2026-05-05 17:19 36.69300 -111.69971 9023 ft 204 kts 42°
2026-05-05 17:19 36.70370 -111.68805 8767 ft 204 kts 42°
2026-05-05 17:20 36.71441 -111.67654 8523 ft 203 kts 42°
2026-05-05 17:20 36.72508 -111.66509 8280 ft 202 kts 42°
2026-05-05 17:20 36.73566 -111.65369 8036 ft 200 kts 42°
2026-05-05 17:20 36.74619 -111.64234 7795 ft 200 kts 42°
2026-05-05 17:21 36.75671 -111.63106 7557 ft 199 kts 42°
2026-05-05 17:21 36.76707 -111.61990 7318 ft 199 kts 43°
2026-05-05 17:21 36.77751 -111.60865 7082 ft 198 kts 42°
2026-05-05 17:22 36.79826 -111.58623 6616 ft 196 kts 42°
2026-05-05 17:22 36.80856 -111.57516 6388 ft 195 kts 43°
2026-05-05 17:22 36.81876 -111.56414 6148 ft 193 kts 42°
2026-05-05 17:22 36.82890 -111.55319 5917 ft 192 kts 41°
2026-05-05 17:23 36.83902 -111.54228 5696 ft 192 kts 41°
2026-05-05 17:23 36.84897 -111.53153 5610 ft 184 kts 41°
2026-05-05 17:23 36.85841 -111.52136 5612 ft 174 kts 41°
2026-05-05 17:23 36.86698 -111.51115 5609 ft 167 kts 47°
2026-05-05 17:24 36.87474 -111.50076 5585 ft 155 kts 49°
2026-05-05 17:24 36.88115 -111.49128 5605 ft 129 kts 52°
2026-05-05 17:24 36.88627 -111.48300 5484 ft 115 kts 63°
2026-05-05 17:24 36.88933 -111.47429 5412 ft 103 kts 69°
2026-05-05 17:25 36.89196 -111.46581 5246 ft 108 kts 69°
2026-05-05 17:25 36.89369 -111.46005 5170 ft 106 kts 69°
2026-05-05 17:25 36.89794 -111.44909 5037 ft 101 kts 53°
2026-05-05 17:25 36.90392 -111.44514 4826 ft 100 kts 11°
2026-05-05 17:26 36.91050 -111.44474 4582 ft 87 kts 351°
2026-05-05 17:26 36.91609 -111.44589 4352 ft 78 kts 348°
2026-05-05 17:26 36.92089 -111.44703 4302 ft 61 kts 349°
2026-05-05 17:26 36.92443 -111.44777 4280 ft 44 kts 349°
2026-05-05 17:27 36.92596 -111.44860 4270 ft 17 kts 268°
2026-05-05 17:27 36.92587 -111.44949 4274 ft 8 kts 277°
2026-05-05 17:27 36.92571 -111.45053 4268 ft 14 kts 253°
2026-05-05 17:27 36.92566 -111.45084 4271 ft 0 kts 261°